User: anonymous   Login
Location: Kalberh�ni
(46.4610°N, 7.2453°E)
Time: 07:14:46
(UTC+00:00)
Language:

Cosmos 1777 Rocket - Orbit

View from above orbital plane
View from above orbital plane
View from above satellite
View from above satellite

Ground track
Ground track

The orbit data is extracted from the following two-line orbital elements,

1 16953U 86070B   21263.81496427 -.00000029  00000-0 -86830-6 0  9994
2 16953  74.0087 288.0000 0011336 142.2548 217.9403 14.37435640835469
Epoch (UTC): 20 September 2021 19:33:32
Eccentricity: 0.0011336
inclination: 74.0087°
perigee height: 759 km
apogee height: 775 km
right ascension of ascending node: 288.0000°
argument of perigee: 142.2548°
revolutions per day: 14.37435640
mean anomaly at epoch: 217.9403°
orbit number at epoch: 83546

The dashed part of the orbit path shows where the satellite is in the earth's shadow,  

DLR